When you browse on this site, cookies collect data to enhance your experience and personalize the content and advertising you see.
Visit our Privacy Policy to learn more. By continuing to use the site, you agree to this use of cookies and data.
  • In Lithuania
  • List of Countries
  • For 7 days
  • Water Temperature
  • Satellite Maps
  • Weather Map
  • Weather Widgets
  • user-avatar
    Login

    Hourly Weather Uige

    Today, 27 May, Monday

    Time Temperature Precipitation Wind Pressure Humidity
    00:00 +22°C° 0 mm 1 mps 691 mmHg 62%
    01:00 +21°C° 0 mm 1 mps 691 mmHg 68%
    02:00 +21°C° 0 mm 1 mps 691 mmHg 70%
    03:00 +20°C° 0 mm 1 mps 691 mmHg 73%
    04:00 +20°C° 0 mm 1 mps 690 mmHg 76%
    05:00 +20°C° 0 mm 1 mps 691 mmHg 75%
    06:00 +20°C° 0 mm 1 mps 691 mmHg 75%
    07:00 +20°C° 0 mm 1 mps 691 mmHg 74%
    08:00 +23°C° 0 mm 1 mps 692 mmHg 62%
    09:00 +27°C° 0 mm 1 mps 692 mmHg 50%
    10:00 +30°C° 0 mm 2 mps 693 mmHg 37%
    11:00 +31°C° 0 mm 1 mps 692 mmHg 35%
    12:00 +33°C° 0 mm 1 mps 692 mmHg 32%
    13:00 +34°C° 0 mm 1 mps 692 mmHg 29%
    14:00 +34°C° 0 mm 1 mps 691 mmHg 30%
    15:00 +33°C° 0 mm 1 mps 691 mmHg 30%
    16:00 +31°C° 0 mm 0 mps 690 mmHg 31%
    17:00 +28°C° 0 mm 0 mps 690 mmHg 38%
    18:00 +25°C° 0 mm 0 mps 690 mmHg 45%
    19:00 +23°C° 0 mm 0 mps 690 mmHg 52%
    20:00 +22°C° 0 mm 0 mps 690 mmHg 56%
    21:00 +21°C° 0 mm 0 mps 691 mmHg 60%
    22:00 +20°C° 0 mm 0 mps 691 mmHg 64%
    23:00 +20°C° 0 mm 0 mps 691 mmHg 67%

    Tomorrow, 28 May, Tuesday

    Time Temperature Precipitation Wind Pressure Humidity
    00:00 +19°C° 0 mm 0 mps 691 mmHg 71%
    01:00 +19°C° 0 mm 0 mps 691 mmHg 75%
    02:00 +18°C° 0 mm 0 mps 691 mmHg 78%
    03:00 +20°C° 0 mm 1 mps 690 mmHg 81%
    04:00 +20°C° 0 mm 1 mps 690 mmHg 84%
    05:00 +20°C° 0 mm 1 mps 690 mmHg 84%
    06:00 +20°C° 0 mm 1 mps 691 mmHg 85%
    07:00 +20°C° 0 mm 1 mps 691 mmHg 85%
    08:00 +24°C° 0 mm 1 mps 692 mmHg 72%
    09:00 +27°C° 0 mm 1 mps 692 mmHg 59%
    10:00 +30°C° 0 mm 1 mps 693 mmHg 46%
    11:00 +32°C° 0 mm 1 mps 693 mmHg 42%
    12:00 +32°C° 0 mm 0 mps 692 mmHg 38%
    13:00 +33°C° 0 mm 0 mps 692 mmHg 33%
    14:00 +32°C° 0 mm 0 mps 691 mmHg 35%
    15:00 +33°C° 0 mm 1 mps 691 mmHg 36%
    16:00 +32°C° 0 mm 1 mps 690 mmHg 37%
    17:00 +30°C° 0 mm 1 mps 690 mmHg 46%
    18:00 +28°C° 0 mm 1 mps 690 mmHg 54%
    19:00 +25°C° 0 mm 1 mps 690 mmHg 63%
    20:00 +24°C° 0 mm 1 mps 690 mmHg 69%
    21:00 +23°C° 0 mm 1 mps 691 mmHg 74%
    22:00 +23°C° 0 mm 1 mps 691 mmHg 79%
    23:00 +22°C° 0 mm 1 mps 691 mmHg 83%

    Day after tomorrow, 29 May, Wednesday

    Time Temperature Precipitation Wind Pressure Humidity
    00:00 +22°C° 0 mm 1 mps 691 mmHg 86%
    01:00 +21°C° 0 mm 1 mps 691 mmHg 89%
    02:00 +21°C° 0 mm 1 mps 691 mmHg 91%
    03:00 +20°C° 0 mm 1 mps 690 mmHg 93%
    04:00 +20°C° 0 mm 1 mps 690 mmHg 96%
    05:00 +20°C° 0 mm 1 mps 690 mmHg 94%
    06:00 +20°C° 0 mm 1 mps 691 mmHg 93%
    07:00 +21°C° 0 mm 1 mps 691 mmHg 91%
    08:00 +24°C° 0 mm 1 mps 692 mmHg 78%
    09:00 +26°C° 0 mm 1 mps 693 mmHg 64%
    10:00 +29°C° 0 mm 1 mps 693 mmHg 51%
    11:00 +31°C° 0 mm 1 mps 693 mmHg 47%
    12:00 +33°C° 0 mm 1 mps 693 mmHg 42%
    13:00 +34°C° 0 mm 1 mps 692 mmHg 37%
    14:00 +33°C° 0 mm 1 mps 691 mmHg 40%
    15:00 +32°C° 0 mm 1 mps 691 mmHg 43%
    16:00 +31°C° 0 mm 1 mps 690 mmHg 46%
    17:00 +29°C° 0 mm 1 mps 690 mmHg 54%
    18:00 +27°C° 0 mm 1 mps 691 mmHg 61%
    19:00 +25°C° 0 mm 1 mps 691 mmHg 69%
    20:00 +24°C° 0 mm 1 mps 691 mmHg 73%
    21:00 +23°C° 0 mm 1 mps 692 mmHg 78%
    22:00 +20°C° 0 mm 0 mps 692 mmHg 83%
    23:00 +22°C° 0 mm 1 mps 692 mmHg 84%

    30 May, Thursday

    Time Temperature Precipitation Wind Pressure Humidity
    00:00 +21°C° 0 mm 1 mps 691 mmHg 85%
    01:00 +21°C° 0 mm 1 mps 691 mmHg 86%
    02:00 +21°C° 0 mm 1 mps 691 mmHg 88%
    03:00 +21°C° 0 mm 1 mps 691 mmHg 90%
    04:00 +20°C° 0 mm 1 mps 690 mmHg 92%
    05:00 +21°C° 0 mm 1 mps 691 mmHg 90%
    06:00 +21°C° 0 mm 1 mps 691 mmHg 89%
    07:00 +21°C° 0 mm 1 mps 692 mmHg 87%
    08:00 +23°C° 0 mm 1 mps 692 mmHg 75%
    09:00 +26°C° 0 mm 1 mps 693 mmHg 62%
    10:00 +28°C° 0 mm 1 mps 693 mmHg 50%
    11:00 +30°C° 0 mm 1 mps 693 mmHg 46%
    12:00 +31°C° 0 mm 1 mps 692 mmHg 42%
    13:00 +33°C° 0 mm 1 mps 692 mmHg 38%
    14:00 +32°C° 0 mm 1 mps 691 mmHg 41%
    15:00 +31°C° 0 mm 1 mps 690 mmHg 44%
    16:00 +30°C° 0 mm 1 mps 690 mmHg 47%
    17:00 +28°C° 0 mm 1 mps 690 mmHg 53%
    18:00 +26°C° 0 mm 1 mps 690 mmHg 58%
    19:00 +24°C° 0 mm 1 mps 691 mmHg 64%
    20:00 +24°C° 0 mm 1 mps 691 mmHg 67%
    21:00 +23°C° 0 mm 1 mps 691 mmHg 70%
    22:00 +22°C° 0 mm 1 mps 692 mmHg 72%
    23:00 +21°C° 0 mm 1 mps 691 mmHg 76%

    31 May, Friday

    Time Temperature Precipitation Wind Pressure Humidity
    00:00 +21°C° 0 mm 1 mps 691 mmHg 79%
    01:00 +20°C° 0 mm 1 mps 691 mmHg 83%
    02:00 +20°C° 0 mm 1 mps 690 mmHg 87%
    03:00 +20°C° 0 mm 1 mps 690 mmHg 91%
    04:00 +19°C° 0 mm 1 mps 690 mmHg 94%
    05:00 +20°C° 0 mm 1 mps 690 mmHg 91%
    06:00 +20°C° 0 mm 1 mps 691 mmHg 88%
    07:00 +20°C° 0 mm 1 mps 691 mmHg 85%
    08:00 +23°C° 0 mm 1 mps 692 mmHg 70%
    09:00 +26°C° 0 mm 1 mps 692 mmHg 55%
    10:00 +29°C° 0 mm 2 mps 693 mmHg 40%
    11:00 +30°C° 0 mm 1 mps 692 mmHg 37%
    12:00 +32°C° 0 mm 1 mps 692 mmHg 34%
    13:00 +34°C° 0 mm 1 mps 691 mmHg 32%
    14:00 +33°C° 0 mm 1 mps 690 mmHg 35%
    15:00 +32°C° 0 mm 1 mps 690 mmHg 39%
    16:00 +31°C° 0 mm 1 mps 689 mmHg 42%
    17:00 +29°C° 0 mm 1 mps 690 mmHg 46%
    18:00 +27°C° 0 mm 1 mps 690 mmHg 51%
    19:00 +26°C° 0 mm 1 mps 690 mmHg 55%
    20:00 +24°C° 0 mm 1 mps 690 mmHg 58%
    21:00 +23°C° 0 mm 1 mps 691 mmHg 61%
    22:00 +22°C° 0 mm 1 mps 691 mmHg 65%
    23:00 +21°C° 0 mm 1 mps 690 mmHg 68%

    1 June, Saturday

    Time Temperature Precipitation Wind Pressure Humidity
    00:00 +21°C° 0 mm 1 mps 690 mmHg 71%
    01:00 +20°C° 0 mm 1 mps 690 mmHg 74%
    02:00 +20°C° 0 mm 1 mps 690 mmHg 78%
    03:00 +19°C° 0 mm 1 mps 690 mmHg 81%
    04:00 +19°C° 0 mm 1 mps 689 mmHg 84%
    05:00 +19°C° 0 mm 1 mps 690 mmHg 83%
    06:00 +20°C° 0 mm 1 mps 690 mmHg 81%
    07:00 +20°C° 0 mm 1 mps 691 mmHg 79%
    08:00 +24°C° 0 mm 1 mps 691 mmHg 66%
    09:00 +27°C° 0 mm 1 mps 692 mmHg 54%
    10:00 +30°C° 0 mm 1 mps 692 mmHg 41%
    11:00 +32°C° 0 mm 1 mps 692 mmHg 38%
    12:00 +33°C° 0 mm 1 mps 691 mmHg 34%
    13:00 +35°C° 0 mm 1 mps 691 mmHg 30%
    14:00 +34°C° 0 mm 1 mps 690 mmHg 33%
    15:00 +33°C° 0 mm 1 mps 690 mmHg 36%
    16:00 +30°C° 0 mm 0 mps 689 mmHg 39%
    17:00 +29°C° 0 mm 0 mps 689 mmHg 43%
    18:00 +27°C° 0 mm 0 mps 690 mmHg 47%
    19:00 +25°C° 0 mm 0 mps 690 mmHg 50%
    20:00 +24°C° 0 mm 0 mps 690 mmHg 55%
    21:00 +23°C° 0 mm 0 mps 691 mmHg 61%
    22:00 +21°C° 0 mm 0 mps 691 mmHg 66%
    23:00 +23°C° 0 mm 1 mps 691 mmHg 69%
    Show more